GW4005 Weather Reports


Display with metric or nautical units.
time (UTC)temp
F
wind
direction
speed
MPH
gust
MPH
rain 1hr
in
rain 24hr
in
rain mn
in
humidity
%
barometer
mb
20260505025014 47 185 5.0 12.0 0.00 0.00 0.00 80 1008.9
20260505024532 46 192 5.0 12.0 0.00 0.00 0.00 81 1008.8
20260505024014 46 192 5.0 11.0 0.00 0.00 0.00 82 1008.8
20260505023515 46 158 5.0 12.0 0.00 0.00 0.00 82 1008.9
20260505023035 46 198 6.0 15.0 0.00 0.00 0.00 82 1008.8
20260505022514 46 166 6.0 15.0 0.00 0.00 0.00 81 1008.8
20260505022021 46 208 5.0 15.0 0.00 0.00 0.00 81 1008.7
20260505021535 46 220 5.0 15.0 0.00 0.00 0.00 80 1008.8
20260505021021 46 146 6.0 15.0 0.00 0.00 0.00 80 1008.7
20260505020514 46 212 7.0 17.0 0.00 0.00 0.00 80 1008.7
20260505020039 47 208 6.0 17.0 0.00 0.00 0.00 80 1008.8
20260505015514 47 197 5.0 20.0 0.00 0.00 0.00 79 1008.5
20260505015016 47 236 7.0 20.0 0.00 0.00 0.00 79 1008.6
20260505014534 47 212 7.0 15.0 0.00 0.00 0.00 79 1008.6
20260505014016 47 178 7.0 15.0 0.00 0.00 0.00 79 1008.6
20260505013516 47 208 8.0 14.0 0.00 0.00 0.00 79 1008.6
20260505013033 47 185 7.0 13.0 0.00 0.00 0.00 79 1008.4
20260505012518 47 212 4.0 14.0 0.00 0.00 0.00 79 1008.3
20260505012016 46 166 6.0 16.0 0.00 0.00 0.00 78 1008.1
20260505011537 47 175 7.0 16.0 0.00 0.00 0.00 78 1008.0
20260505011017 47 187 7.0 19.0 0.00 0.00 0.00 77 1008.0
20260505010514 47 126 8.0 19.0 0.00 0.00 0.00 77 1008.0
20260505010031 48 193 8.0 19.0 0.00 0.00 0.00 76 1008.0
20260505005518 48 225 8.0 16.0 0.00 0.01 0.00 76 1007.8
20260505005014 48 182 6.0 17.0 0.00 0.01 0.00 76 1007.7
20260505004530 48 225 7.0 17.0 0.00 0.01 0.00 77 1007.5
20260505004014 47 220 8.0 17.0 0.00 0.01 0.00 78 1007.3
20260505003518 47 199 6.0 15.0 0.00 0.01 0.00 77 1007.3
20260505003034 47 173 6.0 15.0 0.00 0.01 0.00 77 1007.4
20260505002515 47 201 5.0 13.0 0.00 0.01 0.00 76 1007.4
20260505002018 48 146 3.0 12.0 0.00 0.01 0.00 75 1007.4
20260505001533 48 171 5.0 14.0 0.00 0.01 0.00 74 1007.2
20260505001014 49 173 6.0 14.0 0.00 0.01 0.00 73 1007.0
20260505000514 50 183 6.0 15.0 0.00 0.01 0.00 71 1007.0
20260505000043 50 212 5.0 15.0 0.00 0.01 0.00 70 1006.8
20260504235514 51 243 7.0 16.0 0.00 0.07 0.00 69 1006.8
20260504235016 51 197 7.0 16.0 0.00 0.07 0.00 67 1006.8
20260504234536 51 220 5.0 14.0 0.00 0.07 0.00 67 1006.7
20260504234014 51 208 8.0 14.0 0.00 0.07 0.00 66 1006.6
20260504233517 51 156 4.0 15.0 0.00 0.07 0.00 66 1006.3
20260504233035 51 212 6.0 16.0 0.00 0.07 0.00 66 1006.2
20260504232516 51 198 6.0 17.0 0.00 0.07 0.00 67 1006.0
20260504232015 52 193 7.0 17.0 0.00 0.07 0.00 67 1005.9
20260504231531 52 212 7.0 17.0 0.00 0.07 0.00 67 1005.8
20260504231019 52 166 6.0 12.0 0.00 0.07 0.00 67 1005.8
20260504230514 52 171 4.0 13.0 0.00 0.07 0.00 66 1005.7
20260504230033 52 195 5.0 16.0 0.00 0.07 0.00 66 1005.6
20260504225517 53 164 6.0 16.0 0.00 0.20 0.00 66 1005.4
20260504225015 53 185 6.0 17.0 0.00 0.20 0.00 65 1005.3
20260504224530 53 195 8.0 17.0 0.00 0.20 0.00 64 1005.3
20260504224018 53 198 8.0 17.0 0.00 0.20 0.00 64 1005.2
20260504223514 53 222 7.0 17.0 0.00 0.20 0.00 64 1005.2
20260504223032 53 209 7.0 17.0 0.00 0.20 0.00 64 1005.2
20260504222515 52 211 7.0 19.0 0.00 0.20 0.00 65 1005.2
20260504222014 52 184 7.0 22.0 0.00 0.20 0.00 65 1005.1
20260504221536 51 243 9.0 22.0 0.00 0.20 0.00 66 1005.1
20260504221014 51 183 8.0 18.0 0.00 0.20 0.00 67 1005.2
20260504220514 50 205 8.0 19.0 0.00 0.20 0.00 69 1005.1
20260504220045 50 253 7.0 19.0 0.00 0.20 0.00 70 1005.2
20260504215518 49 167 9.0 19.0 0.00 0.31 0.00 71 1005.1
20260504215017 49 178 7.0 17.0 0.00 0.31 0.00 72 1005.2
20260504214536 49 202 7.0 17.0 0.00 0.31 0.00 72 1005.3
20260504214014 49 199 6.0 15.0 0.00 0.31 0.00 71 1005.4
20260504213514 49 168 7.0 17.0 0.00 0.31 0.00 71 1005.4
20260504213041 50 191 7.0 19.0 0.00 0.31 0.00 70 1005.4
20260504212514 50 181 8.0 19.0 0.00 0.31 0.00 69 1005.3
20260504212017 50 236 8.0 21.0 0.00 0.31 0.00 67 1005.2
20260504211539 51 199 10.0 22.0 0.00 0.31 0.00 66 1005.4
20260504211014 51 210 9.0 23.0 0.00 0.31 0.00 65 1005.4
20260504210516 51 162 9.0 23.0 0.00 0.31 0.00 65 1005.5
20260504210033 51 171 9.0 29.0 0.00 0.31 0.00 65 1005.2
20260504205515 51 247 11.0 29.0 0.00 0.38 0.00 65 1005.1
20260504205014 51 238 12.0 27.0 0.00 0.38 0.00 65 1005.1
20260504204540 51 135 10.0 27.0 0.00 0.38 0.00 67 1005.1
20260504204015 51 199 11.0 31.0 0.00 0.38 0.00 68 1005.0
20260504203517 50 212 13.0 31.0 0.00 0.38 0.00 69 1005.0
20260504203033 49 250 10.0 27.0 0.00 0.38 0.00 72 1005.0
20260504202516 48 203 10.0 27.0 0.00 0.38 0.00 74 1005.0
20260504202015 47 176 11.0 26.0 0.00 0.38 0.00 76 1005.1
20260504201533 48 214 12.0 25.0 0.00 0.38 0.00 74 1005.2
20260504201014 49 219 10.0 24.0 0.00 0.38 0.00 73 1005.1
20260504200514 48 198 13.0 24.0 0.00 0.38 0.00 76 1005.1
20260504200033 47 254 8.0 24.0 0.00 0.38 0.00 77 1005.0
20260504195514 48 208 7.0 20.0 0.00 0.48 0.00 76 1005.2
20260504195015 48 256 7.0 26.0 0.00 0.48 0.00 76 1005.1
20260504194532 48 256 9.0 26.0 0.00 0.48 0.00 76 1005.0
20260504194015 48 231 8.0 22.0 0.00 0.48 0.00 76 1004.9
20260504193515 47 192 10.0 18.0 0.00 0.48 0.00 75 1004.8
20260504193031 48 175 10.0 21.0 0.00 0.48 0.00 75 1004.8
20260504192514 48 218 8.0 21.0 0.00 0.48 0.00 73 1004.8
20260504192014 49 194 10.0 19.0 0.00 0.48 0.00 73 1004.7
20260504191535 50 220 9.0 19.0 0.00 0.48 0.00 72 1004.7
20260504191014 50 137 8.0 19.0 0.00 0.48 0.00 73 1004.8
20260504190518 49 233 7.0 18.0 0.00 0.48 0.00 73 1004.6
20260504190034 48 225 8.0 16.0 0.00 0.48 0.00 72 1004.7
20260504185515 48 240 8.0 20.0 0.00 0.56 0.00 72 1004.7
20260504185019 48 179 8.0 20.0 0.00 0.56 0.00 71 1004.7
20260504184530 49 216 8.0 18.0 0.00 0.56 0.00 69 1004.8
20260504184017 50 231 7.0 18.0 0.00 0.56 0.00 68 1004.8
20260504183516 50 184 8.0 19.0 0.00 0.56 0.00 68 1004.9
20260504183036 50 106 8.0 19.0 0.00 0.56 0.00 67 1004.9
20260504182514 50 258 9.0 23.0 0.00 0.56 0.00 69 1004.9
20260504182016 49 232 10.0 23.0 0.00 0.56 0.00 68 1004.9
20260504181535 50 178 8.0 23.0 0.00 0.56 0.00 68 1005.0
20260504181015 50 218 6.0 20.0 0.00 0.56 0.00 67 1005.0
20260504180514 49 249 7.0 20.0 0.00 0.56 0.00 67 1005.0
20260504180045 49 191 9.0 20.0 0.00 0.56 0.00 67 1004.9
20260504175517 49 206 7.0 19.0 0.00 0.73 0.00 69 1005.0
20260504175017 49 205 7.0 20.0 0.00 0.73 0.00 70 1005.0
20260504174531 49 187 7.0 23.0 0.00 0.73 0.00 71 1005.0
20260504174014 48 210 9.0 23.0 0.00 0.73 0.00 71 1005.1
20260504173514 48 197 10.0 20.0 0.00 0.73 0.00 71 1005.0
20260504173032 48 179 9.0 20.0 0.00 0.73 0.00 70 1005.0
20260504172514 48 215 7.0 20.0 0.00 0.73 0.00 70 1005.0
20260504172019 49 243 8.0 21.0 0.00 0.73 0.00 70 1005.0
20260504171530 48 119 8.0 22.0 0.00 0.73 0.00 68 1005.1
20260504171017 48 286 10.0 22.0 0.00 0.73 0.00 68 1005.1
20260504170515 48 200 8.0 19.0 0.00 0.73 0.00 68 1005.1
20260504151016 46 216 10.0 25.0 0.00 1.31 0.00 76 1005.6
20260504150517 46 202 9.0 20.0 0.00 1.31 0.00 76 1005.6
20260504141015 44 213 10.0 23.0 0.00 1.38 0.00 75 1005.8
20260504140516 44 200 8.0 23.0 0.00 1.38 0.00 76 1005.8
20260504130516 42 206 11.0 23.0 0.00 1.38 0.00 80 1005.1
20260504110516 40 186 8.0 24.0 0.00 1.38 0.00 86 1003.2
20260504100514 40 239 7.0 21.0 0.00 1.38 0.00 89 1002.4
20260504081609 40 320 6.0 14.0 0.00 1.38 0.00 91 999.8
20260504081015 40 197 4.0 15.0 0.00 1.38 0.00 91 999.8
20260504080514 40 198 6.0 15.0 0.00 1.38 0.00 91 999.8
20260504050515 39 307 10.0 23.0 0.00 1.38 0.00 92 997.5
20260504045515 39 283 14.0 24.0 0.00 1.38 0.00 92 997.3
20260504045015 39 288 14.0 23.0 0.00 1.38 0.00 92 997.2
20260504044537 39 279 14.0 24.0 0.00 1.38 0.00 92 997.1
20260504044017 39 283 15.0 24.0 0.00 1.38 0.00 91 997.1
20260504043515 38 333 14.0 24.0 0.00 1.38 0.00 92 996.9
20260504043041 38 288 14.0 24.0 0.00 1.38 0.00 91 996.8
20260504042516 38 306 11.0 26.0 0.00 1.38 0.00 91 996.8
20260504042017 38 328 14.0 26.0 0.00 1.38 0.00 91 996.7
20260504041532 38 319 14.0 25.0 0.00 1.38 0.00 91 996.7
20260504041015 38 329 12.0 25.0 0.00 1.38 0.00 91 996.6
20260504040515 38 307 11.0 28.0 0.00 1.38 0.00 91 996.6
20260504040029 38 320 12.0 28.0 0.00 1.38 0.00 91 996.6
20260504035516 38 316 11.0 23.0 0.00 1.38 0.00 91 996.5
20260504035015 38 316 11.0 23.0 0.00 1.38 0.00 91 996.5
20260504034531 38 308 11.0 25.0 0.00 1.38 0.00 91 996.4
20260504034014 38 342 11.0 26.0 0.00 1.38 0.00 91 996.3
20260504033517 38 4 12.0 26.0 0.00 1.38 0.00 91 996.1
20260504033030 38 358 11.0 26.0 0.00 1.38 0.00 91 996.1
20260504032517 38 339 12.0 26.0 0.00 1.38 0.00 91 996.1
20260504032015 38 354 13.0 25.0 0.00 1.38 0.00 91 996.0
20260504031530 38 348 12.0 23.0 0.00 1.38 0.00 91 995.9
20260504031015 38 318 13.0 23.0 0.00 1.38 0.00 91 995.8
20260504030514 38 341 12.0 23.0 0.00 1.38 0.00 91 995.6
20260504030030 38 335 13.0 23.0 0.00 1.38 0.00 91 995.5
20260504025515 38 339 12.0 20.0 0.00 1.38 1.38 91 995.5